TimeCST,TemperatureF,Dew PointF,Humidity,Sea Level PressureIn,VisibilityMPH,Wind Direction,Wind SpeedMPH,Gust SpeedMPH,PrecipitationIn,Events,Conditions,WindDirDegrees,DateUTC
12:15 AM,26.6,17.6,69,29.98,10.0,SSW,10.4,-,N/A,,Clear,200,2012-12-12 06:15:00
12:35 AM,26.6,17.6,69,29.97,10.0,South,8.1,-,N/A,,Clear,190,2012-12-12 06:35:00
12:55 AM,26.6,17.6,69,29.97,10.0,SSW,9.2,-,N/A,,Clear,200,2012-12-12 06:55:00
1:15 AM,28.4,17.6,64,29.97,10.0,South,11.5,-,N/A,,Clear,180,2012-12-12 07:15:00
1:35 AM,26.6,17.6,69,29.97,10.0,South,11.5,-,N/A,,Clear,180,2012-12-12 07:35:00
1:55 AM,28.4,17.6,64,29.97,10.0,South,12.7,-,N/A,,Clear,180,2012-12-12 07:55:00
2:15 AM,28.4,17.6,64,29.97,10.0,South,11.5,-,N/A,,Clear,180,2012-12-12 08:15:00
2:35 AM,26.6,17.6,69,29.97,10.0,South,12.7,-,N/A,,Clear,190,2012-12-12 08:35:00
2:55 AM,26.6,17.6,69,29.97,10.0,SSW,9.2,-,N/A,,Clear,200,2012-12-12 08:55:00
3:15 AM,26.6,17.6,69,29.97,10.0,SSW,11.5,-,N/A,,Clear,200,2012-12-12 09:15:00
3:35 AM,26.6,17.6,69,29.97,10.0,SSW,12.7,-,N/A,,Clear,200,2012-12-12 09:35:00
3:55 AM,26.6,17.6,69,29.96,10.0,SSW,12.7,-,N/A,,Clear,200,2012-12-12 09:55:00
4:15 AM,26.6,17.6,69,29.95,10.0,South,11.5,18.4,N/A,,Clear,190,2012-12-12 10:15:00
4:35 AM,28.4,17.6,64,29.95,10.0,South,13.8,23.0,N/A,,Clear,180,2012-12-12 10:35:00
4:55 AM,26.6,17.6,69,29.95,10.0,South,15.0,-,N/A,,Clear,190,2012-12-12 10:55:00
5:15 AM,26.6,17.6,69,29.95,10.0,South,12.7,-,N/A,,Clear,190,2012-12-12 11:15:00
5:35 AM,26.6,17.6,69,29.95,10.0,South,13.8,-,N/A,,Clear,190,2012-12-12 11:35:00
5:55 AM,26.6,17.6,69,29.95,10.0,South,12.7,-,N/A,,Clear,190,2012-12-12 11:55:00
6:35 AM,26.6,17.6,69,29.96,10.0,SSW,9.2,-,N/A,,Clear,200,2012-12-12 12:35:00
6:55 AM,28.4,17.6,64,29.96,10.0,South,13.8,-,N/A,,Clear,190,2012-12-12 12:55:00
7:15 AM,28.4,17.6,64,29.96,10.0,South,13.8,-,N/A,,Clear,190,2012-12-12 13:15:00
7:35 AM,26.6,17.6,69,29.96,10.0,South,12.7,21.9,N/A,,Clear,190,2012-12-12 13:35:00
7:55 AM,28.4,17.6,64,29.97,10.0,SSW,10.4,-,N/A,,Clear,200,2012-12-12 13:55:00
8:15 AM,28.4,17.6,64,29.97,10.0,SSW,9.2,15.0,N/A,,Clear,210,2012-12-12 14:15:00
8:35 AM,28.4,17.6,64,29.97,9.0,SSW,12.7,-,N/A,,Clear,210,2012-12-12 14:35:00
8:55 AM,30.2,17.6,60,29.97,10.0,SSW,11.5,-,N/A,,Clear,200,2012-12-12 14:55:00
9:15 AM,33.8,17.6,52,29.97,10.0,SSW,11.5,17.3,N/A,,Clear,210,2012-12-12 15:15:00
9:35 AM,35.6,17.6,48,29.97,10.0,SSW,11.5,17.3,N/A,,Clear,210,2012-12-12 15:35:00
9:55 AM,37.4,17.6,45,29.96,10.0,SSW,16.1,25.3,N/A,,Clear,200,2012-12-12 15:55:00
10:15 AM,39.2,17.6,42,29.96,9.0,SSW,17.3,26.5,N/A,,Clear,200,2012-12-12 16:15:00
10:55 AM,41.0,17.6,39,29.97,10.0,SSW,19.6,29.9,N/A,,Clear,210,2012-12-12 16:55:00
11:15 AM,44.6,17.6,34,29.96,10.0,SSW,20.7,26.5,N/A,,Clear,200,2012-12-12 17:15:00
11:35 AM,46.4,15.8,29,29.95,10.0,SSW,20.7,27.6,N/A,,Clear,210,2012-12-12 17:35:00
11:55 AM,46.4,15.8,29,29.94,8.0,SSW,20.7,34.5,N/A,,Clear,210,2012-12-12 17:55:00
12:15 PM,48.2,15.8,27,29.94,6.0,SSW,18.4,34.5,N/A,,Haze,210,2012-12-12 18:15:00
12:35 PM,48.2,15.8,27,29.93,9.0,SSW,23.0,38.0,N/A,,Clear,210,2012-12-12 18:35:00
12:55 PM,50.0,15.8,26,29.93,8.0,SSW,25.3,42.6,N/A,,Clear,210,2012-12-12 18:55:00
1:15 PM,50.0,15.8,26,29.92,6.0,SSW,23.0,35.7,N/A,,Haze,200,2012-12-12 19:15:00
1:35 PM,50.0,15.8,26,29.91,7.0,SSW,25.3,36.8,N/A,,Clear,210,2012-12-12 19:35:00
2:15 PM,51.8,14.0,22,29.90,9.0,SSW,27.6,39.1,N/A,,Clear,200,2012-12-12 20:15:00
2:35 PM,51.8,14.0,22,29.89,8.0,SSW,24.2,39.1,N/A,,Clear,210,2012-12-12 20:35:00
2:55 PM,51.8,14.0,22,29.89,9.0,SSW,21.9,38.0,N/A,,Clear,200,2012-12-12 20:55:00
3:15 PM,51.8,12.2,21,29.90,10.0,SSW,23.0,35.7,N/A,,Clear,200,2012-12-12 21:15:00
3:35 PM,51.8,12.2,21,29.91,10.0,SSW,25.3,33.4,N/A,,Clear,200,2012-12-12 21:35:00
3:55 PM,50.0,12.2,22,29.91,10.0,SSW,19.6,28.8,N/A,,Clear,200,2012-12-12 21:55:00
4:15 PM,50.0,14.0,24,29.91,10.0,South,18.4,27.6,N/A,,Clear,190,2012-12-12 22:15:00
4:35 PM,48.2,14.0,25,29.91,10.0,South,15.0,23.0,N/A,,Clear,190,2012-12-12 22:35:00
4:55 PM,46.4,14.0,27,29.91,10.0,South,16.1,23.0,N/A,,Clear,190,2012-12-12 22:55:00
5:15 PM,44.6,14.0,29,29.90,10.0,South,12.7,18.4,N/A,,Clear,170,2012-12-12 23:15:00
5:35 PM,44.6,14.0,29,29.91,10.0,South,12.7,-,N/A,,Clear,180,2012-12-12 23:35:00
5:55 PM,42.8,14.0,31,29.92,10.0,South,12.7,19.6,N/A,,Clear,180,2012-12-12 23:55:00
6:15 PM,42.8,14.0,31,29.92,10.0,South,16.1,-,N/A,,Clear,180,2012-12-13 00:15:00
6:35 PM,41.0,15.8,36,29.93,10.0,South,17.3,-,N/A,,Clear,180,2012-12-13 00:35:00
6:55 PM,41.0,15.8,36,29.94,10.0,South,17.3,24.2,N/A,,Clear,180,2012-12-13 00:55:00
7:15 PM,41.0,15.8,36,29.94,10.0,South,20.7,26.5,N/A,,Clear,180,2012-12-13 01:15:00
7:35 PM,41.0,14.0,33,29.94,10.0,South,19.6,28.8,N/A,,Clear,180,2012-12-13 01:35:00
7:55 PM,41.0,14.0,33,29.95,10.0,South,19.6,27.6,N/A,,Clear,180,2012-12-13 01:55:00
8:15 PM,41.0,14.0,33,29.94,10.0,South,23.0,29.9,N/A,,Clear,180,2012-12-13 02:15:00
8:55 PM,39.2,14.0,36,29.95,10.0,South,21.9,28.8,N/A,,Clear,180,2012-12-13 02:55:00
9:15 PM,39.2,14.0,36,29.95,10.0,South,20.7,31.1,N/A,,Partly Cloudy,180,2012-12-13 03:15:00
9:35 PM,37.4,14.0,38,29.95,10.0,South,20.7,31.1,N/A,,Partly Cloudy,180,2012-12-13 03:35:00
9:55 PM,37.4,14.0,38,29.96,10.0,South,20.7,29.9,N/A,,Partly Cloudy,180,2012-12-13 03:55:00
10:15 PM,37.4,14.0,38,29.96,-9999.0,South,20.7,28.8,N/A,,Partly Cloudy,180,2012-12-13 04:15:00
10:35 PM,37.4,14.0,38,29.97,10.0,South,19.6,28.8,N/A,,Clear,190,2012-12-13 04:35:00
10:55 PM,37.4,12.2,36,29.96,10.0,South,19.6,27.6,N/A,,Partly Cloudy,190,2012-12-13 04:55:00
11:15 PM,37.4,12.2,36,29.96,10.0,South,20.7,31.1,N/A,,Partly Cloudy,190,2012-12-13 05:15:00
11:35 PM,35.6,12.2,38,29.96,10.0,South,21.9,28.8,N/A,,Clear,180,2012-12-13 05:35:00
11:55 PM,35.6,12.2,38,29.96,10.0,South,19.6,29.9,N/A,,Clear,190,2012-12-13 05:55:00